Regional Weather Roundup
Issued by NWS Northern Indiana

Home | Current Version | Previous Version | Graphics & Text | Print | Product List | Glossary On
Versions: 1 2 3 4 5 6 7 8 9 10 11 12 13 14 15 16 17 18 19 20 21 22 23 24 25 26 27 28 29 30 31 32 33 34 35 36 37 38 39 40 41 42 43 44 45 46 47 48 49 50
000
ASUS43 KIWX 250910
RWRIWX

KIWX WEATHER ROUNDUP
NATIONAL WEATHER SERVICE NORTHERN INDIANA
500 AM EDT SAT APR 25 2015

NOTE: "FAIR" INDICATES FEW OR NO CLOUDS BELOW 12,000 FEET WITH NO
SIGNIFICANT WEATHER AND/OR OBSTRUCTIONS TO VISIBILITY.

* THESE STATIONS ARE NOT UNDER NWS QUALITY CONTROL. THEY ALSO MAY NOT
  REPORT WEATHER SUCH AS PRECIPITATION OR FOG.

INZ001>027-251000-
NORTHERN INDIANA

CITY           SKY/WX    TMP DP  RH WIND       PRES   REMARKS
GARY*          MOCLDY    47  36  66 E10G16    29.83R
VALPARAISO     MOCLDY    43  38  82 E16       29.81F
MICHIGAN CITY* CLOUDY    43  34  70 E6        29.84S
LAPORTE*       CLOUDY    45  40  84 E15       29.82F
KNOX*          MOCLDY    43  32  65 E13G23    29.80F
SOUTH BEND     CLOUDY    44  38  79 E9G20     29.85F
GOSHEN         CLOUDY    43  38  82 E10       29.86F
MONTICELLO*    CLOUDY    51  35  53 E9G18     29.77S
LOGANSPORT*    CLOUDY    46  32  57 E16G22    29.79F
ROCHESTER*     MOCLDY    48  36  61 E15G21    29.82R
WARSAW*        MOCLDY    41  37  87 E13G20    29.84F
ANGOLA*        CLOUDY    39  37  93 E12       29.89F
FORT WAYNE     CLOUDY    45  37  73 E18       29.87F
HUNTINGTON*    CLOUDY    47  32  55 E17G23    29.84F
PERU/GRISSOM   CLOUDY    49  36  59 E14       29.78F
MARION*        CLOUDY    49  35  57 E7        29.83F

$$
INZ028>050-251000-
CENTRAL INDIANA

CITY           SKY/WX    TMP DP  RH WIND       PRES   REMARKS
LAFAYETTE      CLOUDY    52  37  56 SE8       29.77F
KOKOMO*        CLOUDY    48  36  61 E16       29.80F
MUNCIE*        CLOUDY    51  36  56 SE9       29.83F
INDIANAPOLIS   CLOUDY    49  43  80 E9        29.79F

$$
MIZ043>046-050>051-056>058-064>065-071>073-077>080-251000-
SOUTHWEST LOWER MICHIGAN

CITY           SKY/WX    TMP DP  RH WIND       PRES   REMARKS
BATTLE CREEK   CLOUDY    41  38  89 E7        29.91F
BENTON HARBOR  CLOUDY    42  38  85 E12       29.85F
COLDWATER*     CLOUDY    40  36  85 E13       29.88F
HILLSDALE*     CLOUDY    40  39  95 E8        29.91F
HOLLAND        CLOUDY    44  39  82 E10       29.89F
GRAND RAPIDS   CLOUDY    42  36  79 E10       29.92F
KALAMAZOO      CLOUDY    42  37  82 E9        29.89F
STURGIS*       CLOUDY    41  37  87 E14       29.85F
THREE RIVERS*  CLOUDY    42  37  83 E13G18    29.88F

$$
OHZ001>008-015>018-024>025-251000-
NORTHWEST OHIO

CITY           SKY/WX    TMP DP  RH WIND       PRES   REMARKS
WAUSEON*       CLOUDY    41  39  93 E9        29.93F
DEFIANCE       LGT RAIN  43  37  79 E12       29.93F
FINDLAY        CLOUDY    44  34  67 NE14      29.92S
TOLEDO EXPRESS LGT RAIN  41  39  93 E10       29.93F
TOLEDO METCALF CLOUDY    41  38  89 E10       29.96F
LIMA           CLOUDY    46  34  62 NE12      29.90R

$$
AND FOR LAKE MICHIGAN COASTAL AND OPEN LAKE BUOY OBSERVATIONS

STATION/POSITION TEMP    WIND        PRES    VSBY  WAVE
                 AIR SEA DIR/SP/G                  HT/PER
                 (F)     (DEG/KT/KT) (MB)    (MI)  (FT/S)
CALUMET HARBOR    44      70/ 10/ 13   N/A
MICHIGAN CITY     44      60/ 12/ 16   N/A
BURNS HARBOR      45     100/  9/ 16 1010.5R
SAINT JOSEPH      44      40/  4/ 11 1011.2F
MICHIGAN CITY     45 44  100/ 14/ 17   N/A           3/ 3

$$
&&


USA.gov is the U.S. government's official web portal to all federal, state and local government web resources and services.